Location: Caltech
(34.1382°N, 118.1253°W)
Time: 08:02:27
(UTC-07:00)

JAS-1B - Visible Passes

Search period start: 23 July 2016 00:00
Search period end: 02 August 2016 00:00
Orbit: 911 x 1744 km, 99.0° (Epoch: 22 July)

Date Brightness Start Highest point End Pass type
(mag) Time Alt. Az. Time Alt. Az. Time Alt. Az.
23 Jul 9.9 05:21:25 10° ESE 05:25:34 20° ENE 05:29:34 10° NNE visible
23 Jul 10.1 20:47:16 10° NNW 20:52:37 24° WNW 20:58:40 10° WSW visible
24 Jul 10.5 21:07:08 10° NNW 21:11:27 17° WNW 21:16:10 10° W visible
25 Jul 10.7 21:27:47 10° NW 21:30:11 12° WNW 21:32:43 10° W visible
27 Jul 9.3 20:11:37 10° N 20:18:20 42° WNW 20:26:14 10° SW visible
28 Jul 10.1 05:06:47 10° E 05:09:58 15° ENE 05:13:07 10° NNE visible
28 Jul 9.8 20:31:01 10° N 20:37:15 31° WNW 20:44:25 10° SW visible
29 Jul 9.7 05:24:22 10° ESE 05:28:44 23° ENE 05:33:04 10° NNE visible
29 Jul 10.3 20:50:38 10° NNW 20:56:07 23° WNW 21:02:16 10° WSW visible
30 Jul 10.6 21:10:35 10° NNW 21:14:54 16° WNW 21:19:37 10° W visible
31 Jul 10.9 21:31:29 10° NW 21:33:37 11° WNW 21:35:50 10° WNW visible
